DW7854 Weather Reports


Display with metric or nautical units.
time (UTC)temp
F
wind
direction
speed
MPH
gust
MPH
rain 1hr
in
rain 24hr
in
rain mn
in
humidity
%
barometer
mb
20260507060005 54 321 0.0 0.0 0.00 0.06 0.00 94 1016.9
20260507055933 54 0 0.0 0.0 0.00 0.06 0.00 94 1016.5
20260507055033 54 0 0.0 0.0 0.00 0.06 0.00 94 1016.6
20260507054516 54 321 0.0 0.0 0.00 0.06 0.00 94 1016.9
20260507054133 54 0 0.0 0.0 0.00 0.06 0.00 94 1016.5
20260507053233 54 0 0.0 0.0 0.00 0.06 0.00 94 1016.4
20260507053008 54 321 0.0 0.0 0.00 0.06 0.00 94 1016.8
20260507052333 54 0 0.0 0.0 0.00 0.06 0.00 94 1016.4
20260507051508 54 321 0.0 0.0 0.00 0.06 0.00 94 1016.8
20260507051433 54 0 0.0 0.0 0.00 0.06 0.00 94 1016.4
20260507050103 54 321 0.0 0.0 0.00 0.06 0.00 94 1016.8
20260507044733 54 0 0.0 0.0 0.00 0.06 0.06 94 1016.5
20260507043834 54 0 0.0 0.0 0.00 0.06 0.06 94 1016.4
20260507043103 54 321 0.0 0.0 0.00 0.06 0.06 94 1016.8
20260507042933 54 0 0.0 0.0 0.00 0.06 0.06 94 1016.3
20260507042033 54 0 0.0 0.0 0.00 0.06 0.06 94 1016.3
20260507041503 54 321 0.0 0.0 0.00 0.06 0.06 94 1016.6
20260507041133 54 0 0.0 0.0 0.00 0.06 0.06 94 1016.3
20260507040233 54 321 0.0 1.0 0.00 0.06 0.06 94 1016.2
20260507040011 54 321 0.0 1.0 0.00 0.06 0.06 94 1016.6
20260507034505 54 321 0.0 0.0 0.00 0.06 0.06 93 1016.5
20260507034433 54 0 0.0 0.0 0.00 0.06 0.06 93 1016.0
20260507033533 54 0 0.0 0.0 0.00 0.06 0.06 93 1015.9
20260507033004 54 321 0.0 0.0 0.00 0.06 0.06 93 1016.3
20260507032633 54 0 0.0 0.0 0.00 0.06 0.06 93 1015.8
20260507031733 54 0 0.0 0.0 0.00 0.06 0.06 93 1015.7
20260507031504 54 321 0.0 1.0 0.00 0.06 0.06 93 1016.1
20260507030005 54 321 0.0 2.0 0.00 0.06 0.06 93 1015.7
20260507025933 54 321 0.0 1.0 0.00 0.06 0.06 93 1015.3
20260507025033 54 0 0.0 0.0 0.00 0.06 0.06 93 1015.1
20260507024510 53 321 0.0 2.0 0.00 0.06 0.06 93 1015.3
20260507024133 54 320 1.0 2.0 0.00 0.06 0.06 93 1014.9
20260507023233 54 321 0.0 1.0 0.00 0.06 0.06 92 1014.8
20260507023104 53 321 0.0 1.0 0.00 0.06 0.06 92 1015.2
20260507022333 54 321 0.0 3.0 0.00 0.06 0.06 92 1014.8
20260507021509 53 321 0.0 2.0 0.00 0.06 0.06 93 1015.1
20260507021433 54 318 1.0 3.0 0.00 0.06 0.06 92 1014.8
20260507020533 54 318 1.0 4.0 0.00 0.06 0.06 93 1014.7
20260507020116 53 310 1.0 4.0 0.00 0.06 0.06 93 1015.0
20260507015633 54 1 1.0 3.0 0.00 0.06 0.06 93 1014.4
20260507014733 54 15 1.0 3.0 0.00 0.06 0.06 93 1014.2
20260507014508 53 22 0.0 3.0 0.00 0.06 0.06 93 1014.5
20260507013833 54 344 1.0 3.0 0.00 0.06 0.06 93 1014.1
20260507013103 53 336 0.0 2.0 0.00 0.06 0.06 93 1014.4
20260507012933 54 336 0.0 1.0 0.00 0.06 0.06 93 1013.9
20260507012033 54 4 1.0 2.0 0.00 0.06 0.06 92 1013.8
20260507011606 53 21 0.0 2.0 0.00 0.06 0.06 93 1014.2
20260507011133 54 328 0.0 2.0 0.00 0.06 0.06 93 1013.8
20260507010010 53 325 1.0 2.0 0.00 0.06 0.06 92 1014.4
20260507005333 54 354 0.0 3.0 0.00 0.06 0.06 92 1014.0
20260507004608 53 319 1.0 4.0 0.00 0.06 0.06 93 1014.2
20260507004433 54 36 1.0 5.0 0.00 0.06 0.06 92 1013.7
20260507003533 54 357 1.0 2.0 0.00 0.06 0.06 93 1013.9
20260507003103 53 28 0.0 4.0 0.00 0.06 0.06 93 1014.3
20260507002633 54 149 2.0 4.0 0.00 0.06 0.06 93 1014.0
20260507001733 54 319 2.0 5.0 0.00 0.06 0.06 92 1014.6
20260507001504 53 216 2.0 5.0 0.00 0.06 0.06 92 1014.6
20260507000833 54 353 2.0 6.0 0.00 0.06 0.06 92 1013.7
20260507000009 53 340 2.0 6.0 0.00 0.06 0.06 92 1013.5
20260506235933 54 1 2.0 5.0 0.00 0.06 0.06 92 1013.2
20260506235033 54 19 2.0 6.0 0.00 0.06 0.06 92 1012.9
20260506234603 53 41 2.0 5.0 0.00 0.06 0.06 92 1013.0
20260506234133 54 18 2.0 4.0 0.00 0.06 0.06 92 1012.7
20260506233233 54 25 2.0 6.0 0.00 0.06 0.06 92 1013.4
20260506233007 53 334 2.0 6.0 0.00 0.06 0.06 92 1013.9
20260506232333 54 29 2.0 6.0 0.00 0.06 0.06 92 1013.4
20260506231504 53 10 1.0 4.0 0.01 0.06 0.06 92 1013.7
20260506231433 54 9 2.0 4.0 0.01 0.06 0.06 92 1013.4
20260506230108 53 341 4.0 8.0 0.02 0.06 0.06 92 1013.7
20260506225633 54 15 3.0 7.0 0.02 0.06 0.06 92 1012.9
20260506224503 53 78 1.0 8.0 0.02 0.06 0.06 91 1014.2
20260506223833 54 36 2.0 8.0 0.02 0.06 0.06 92 1013.3
20260506223106 53 92 2.0 7.0 0.02 0.06 0.06 91 1013.2
20260506222933 54 39 1.0 7.0 0.02 0.06 0.06 91 1013.0
20260506222033 54 102 0.0 1.0 0.01 0.05 0.05 91 1013.7
20260506221612 53 321 0.0 2.0 0.01 0.05 0.05 91 1014.0
20260506221133 54 38 1.0 3.0 0.00 0.04 0.04 90 1013.8
20260506220233 54 34 0.0 3.0 0.00 0.04 0.04 90 1013.6
20260506220004 53 63 0.0 6.0 0.00 0.04 0.04 90 1013.9
20260506215333 54 2 3.0 8.0 0.00 0.04 0.04 90 1013.1
20260506214509 53 46 3.0 6.0 0.00 0.04 0.04 89 1013.2
20260506214433 54 8 2.0 4.0 0.00 0.04 0.04 90 1013.0
20260506213533 54 20 3.0 7.0 0.00 0.04 0.04 89 1013.0
20260506213003 53 100 2.0 9.0 0.00 0.04 0.04 89 1013.3
20260506212633 54 22 4.0 9.0 0.00 0.04 0.04 89 1012.7
20260506211733 54 19 4.0 8.0 0.00 0.04 0.04 89 1012.3
20260506211604 54 360 4.0 9.0 0.00 0.04 0.04 89 1012.6
20260506210833 54 38 4.0 11.0 0.00 0.04 0.04 89 1012.2
20260506210006 54 61 3.0 7.0 0.00 0.04 0.04 89 1012.4
20260506205933 54 52 4.0 9.0 0.00 0.04 0.04 89 1012.2
20260506205033 54 32 4.0 10.0 0.00 0.04 0.04 88 1012.6
20260506204604 54 39 4.0 10.0 0.00 0.04 0.04 88 1012.8
20260506204133 55 8 3.0 11.0 0.00 0.04 0.04 88 1012.6
20260506203233 55 60 2.0 7.0 0.00 0.04 0.04 88 1012.8
20260506203003 54 196 3.0 7.0 0.00 0.04 0.04 88 1012.9
20260506202333 55 44 3.0 8.0 0.00 0.04 0.04 88 1012.3
20260506201511 54 148 4.0 10.0 0.00 0.04 0.04 88 1012.8
20260506201433 55 63 3.0 10.0 0.00 0.04 0.04 88 1012.7
20260506200533 55 38 3.0 10.0 0.00 0.04 0.04 88 1012.5
20260506200005 54 12 2.0 10.0 0.00 0.04 0.04 89 1012.6
20260506195633 55 24 3.0 11.0 0.00 0.04 0.04 89 1012.3
20260506194733 55 34 4.0 12.0 0.00 0.04 0.04 89 1011.9
20260506194604 54 28 4.0 12.0 0.00 0.04 0.04 89 1012.0
20260506193833 55 34 4.0 12.0 0.00 0.04 0.04 88 1012.3
20260506193004 55 317 4.0 15.0 0.00 0.04 0.04 88 1012.4
20260506192933 55 44 5.0 14.0 0.00 0.04 0.04 88 1012.3
20260506191603 55 32 6.0 13.0 0.00 0.04 0.04 88 1011.8
20260506191133 55 51 5.0 10.0 0.00 0.04 0.04 89 1012.2
20260506190233 55 65 6.0 16.0 0.01 0.04 0.04 91 1012.0
20260506190008 55 360 8.0 16.0 0.01 0.04 0.04 90 1011.9
20260506185333 55 89 6.0 16.0 0.02 0.04 0.04 91 1011.5
20260506184503 54 155 4.0 14.0 0.02 0.04 0.04 92 1011.7
20260506184433 54 70 3.0 14.0 0.02 0.04 0.04 92 1011.7
20260506183106 54 116 3.0 8.0 0.03 0.04 0.04 92 1014.0
20260506182633 54 48 3.0 8.0 0.03 0.04 0.04 93 1013.5
20260506181733 54 43 2.0 8.0 0.03 0.04 0.04 93 1013.5
20260506181508 53 130 2.0 8.0 0.03 0.04 0.04 93 1013.7
20260506180833 54 103 2.0 7.0 0.03 0.04 0.04 92 1014.0
20260506180104 53 225 1.0 7.0 0.02 0.03 0.03 91 1015.3
20260506175933 53 347 4.0 7.0 0.02 0.03 0.03 91 1015.1
20260506175033 54 354 3.0 8.0 0.01 0.02 0.02 90 1014.9
20260506174604 53 10 1.0 8.0 0.01 0.02 0.02 89 1014.8
20260506174133 54 70 2.0 10.0 0.01 0.02 0.02 89 1013.9
20260506173233 54 85 4.0 10.0 0.00 0.01 0.01 89 1014.0
20260506173113 54 120 4.0 10.0 0.00 0.01 0.01 89 1014.2
20260506172333 54 36 2.0 6.0 0.00 0.01 0.01 88 1015.2
20260506171505 54 255 1.0 9.0 0.00 0.01 0.01 89 1015.7
20260506171433 54 337 4.0 8.0 0.00 0.01 0.01 89 1015.5
20260506170533 54 15 4.0 9.0 0.00 0.01 0.01 89 1013.2
20260506170103 54 360 3.0 9.0 0.00 0.01 0.01 89 1013.3
20260506165633 54 21 4.0 10.0 0.00 0.01 0.01 89 1013.5
20260506164507 54 42 4.0 9.0 0.00 0.01 0.01 89 1014.6
20260506163833 55 92 2.0 5.0 0.00 0.01 0.01 90 1014.4
20260506163003 55 136 1.0 12.0 0.00 0.01 0.01 90 1014.4
20260506162933 55 33 5.0 12.0 0.00 0.01 0.01 90 1014.2
20260506162033 55 29 4.0 10.0 0.00 0.01 0.01 90 1013.3
20260506161604 55 355 3.0 11.0 0.00 0.01 0.01 91 1013.9
20260506161133 55 25 4.0 11.0 0.00 0.01 0.01 91 1013.5
20260506160233 55 48 2.0 8.0 0.00 0.01 0.01 91 1013.2
20260506160004 55 28 2.0 8.0 0.00 0.01 0.01 91 1013.3
20260506155333 55 39 3.0 8.0 0.00 0.01 0.01 91 1013.3
20260506154504 55 12 3.0 5.0 0.00 0.01 0.01 91 1013.5
20260506154433 55 47 3.0 6.0 0.00 0.01 0.01 91 1013.3
20260506153533 55 37 4.0 11.0 0.00 0.01 0.01 91 1013.2
20260506153115 55 309 1.0 12.0 0.00 0.01 0.01 91 1013.3
20260506152633 56 39 4.0 13.0 0.00 0.01 0.01 92 1013.0
20260506151733 56 32 3.0 7.0 0.00 0.01 0.01 92 1012.9
20260506151503 56 325 1.0 8.0 0.00 0.01 0.01 92 1012.9
20260506150833 56 62 2.0 9.0 0.00 0.01 0.01 93 1012.8
20260506150004 56 145 2.0 10.0 0.00 0.01 0.01 93 1012.4
20260506145933 57 49 3.0 10.0 0.00 0.01 0.01 92 1012.3
20260506145032 57 33 3.0 8.0 0.01 0.01 0.01 93 1012.3
20260506144613 57 23 4.0 11.0 0.01 0.01 0.01 93 1012.1
20260506143233 58 62 3.0 11.0 0.01 0.01 0.01 93 1011.8
20260506143104 57 73 1.0 11.0 0.01 0.01 0.01 93 1011.9
20260506142334 58 73 3.0 8.0 0.01 0.01 0.01 93 1011.9
20260506141507 58 115 1.0 9.0 0.01 0.01 0.01 93 1012.0
20260506141433 59 52 4.0 9.0 0.01 0.01 0.01 93 1011.8
20260506140533 59 48 4.0 10.0 0.01 0.01 0.01 93 1011.5
20260506140107 58 51 3.0 15.0 0.01 0.01 0.01 93 1011.6
20260506134732 59 24 4.0 10.0 0.00 0.00 0.00 93 1011.5
20260506134509 59 355 2.0 11.0 0.00 0.00 0.00 93 1011.7
20260506133104 60 48 4.0 13.0 0.00 0.00 0.00 92 1011.5
20260506132933 60 27 5.0 13.0 0.00 0.00 0.00 92 1011.5
20260506132033 61 20 3.0 9.0 0.00 0.00 0.00 93 1011.2
20260506131603 61 337 2.0 8.0 0.00 0.00 0.00 93 1011.1
20260506131132 62 29 3.0 7.0 0.00 0.00 0.00 92 1010.7
20260506130005 62 11 2.0 7.0 0.00 0.00 0.00 92 1010.7
20260506125332 63 27 2.0 5.0 0.00 0.00 0.00 92 1010.9
20260506124503 63 44 2.0 6.0 0.00 0.00 0.00 91 1010.6
20260506124433 63 38 3.0 6.0 0.00 0.00 0.00 91 1010.6
20260506123533 64 28 2.0 7.0 0.00 0.00 0.00 91 1010.2
20260506123004 63 335 1.0 5.0 0.00 0.00 0.00 91 1010.2
20260506122633 64 86 0.0 3.0 0.00 0.00 0.00 90 1010.2
20260506121732 64 318 0.0 2.0 0.00 0.00 0.00 89 1010.0
20260506121505 63 318 0.0 3.0 0.00 0.00 0.00 89 1010.0
20260506120016 63 292 0.0 1.0 0.00 0.00 0.00 88 1009.5
20260506115933 64 299 1.0 3.0 0.00 0.00 0.00 88 1009.4
20260506115033 64 306 2.0 5.0 0.00 0.00 0.00 88 1009.2
20260506114614 64 304 2.0 4.0 0.00 0.00 0.00 88 1009.2
20260506114132 64 316 2.0 4.0 0.00 0.00 0.00 88 1009.2
20260506113232 64 333 0.0 3.0 0.00 0.00 0.00 88 1008.7
20260506113023 64 333 0.0 2.0 0.00 0.00 0.00 88 1008.7
20260506112332 64 317 1.0 3.0 0.00 0.00 0.00 88 1008.7
20260506111604 64 306 0.0 4.0 0.00 0.00 0.00 88 1008.7
20260506111432 64 278 1.0 4.0 0.00 0.00 0.00 88 1008.6
20260506110006 64 166 0.0 1.0 0.00 0.00 0.00 88 1008.1
20260506105632 64 166 0.0 1.0 0.00 0.00 0.00 89 1008.2
20260506104732 65 166 0.0 1.0 0.00 0.00 0.00 89 1008.1
20260506104503 64 166 0.0 2.0 0.00 0.00 0.00 88 1008.2
20260506103832 65 176 1.0 2.0 0.00 0.00 0.00 89 1008.0
20260506103104 64 316 0.0 2.0 0.00 0.00 0.00 88 1007.9
20260506102932 65 316 0.0 1.0 0.00 0.00 0.00 88 1007.8
20260506102034 65 316 0.0 2.0 0.00 0.00 0.00 87 1007.6
20260506101606 64 316 0.0 2.0 0.00 0.00 0.00 87 1007.6
20260506101132 65 316 0.0 1.0 0.00 0.00 0.00 87 1007.6
20260506100232 65 274 0.0 1.0 0.00 0.00 0.00 87 1007.5
20260506100104 65 316 0.0 2.0 0.00 0.00 0.00 87 1007.5
20260506095332 65 209 0.0 3.0 0.00 0.00 0.00 87 1007.6
20260506094506 65 316 0.0 1.0 0.00 0.00 0.00 86 1007.4
20260506094432 65 316 0.0 1.0 0.00 0.00 0.00 86 1007.3
20260506093003 65 316 0.0 2.0 0.00 0.00 0.00 86 1007.5
20260506092632 66 316 0.0 2.0 0.00 0.00 0.00 86 1007.4
20260506091732 66 0 0.0 0.0 0.00 0.00 0.00 86 1007.2
20260506091603 65 316 0.0 0.0 0.00 0.00 0.00 86 1007.1
20260506090832 66 316 0.0 1.0 0.00 0.00 0.00 85 1007.0
20260506090005 65 316 0.0 2.0 0.00 0.00 0.00 85 1007.0
20260506085932 66 316 0.0 2.0 0.00 0.00 0.00 85 1007.0
20260506085032 66 358 0.0 2.0 0.00 0.00 0.00 85 1006.8
20260506084609 66 311 0.0 2.0 0.00 0.00 0.00 84 1006.8
20260506084132 66 249 0.0 2.0 0.00 0.00 0.00 84 1006.8
20260506083232 66 248 0.0 3.0 0.00 0.00 0.00 83 1006.6
20260506083103 66 248 0.0 3.0 0.00 0.00 0.00 83 1006.7
20260506082332 66 299 1.0 4.0 0.00 0.00 0.00 83 1006.6
20260506081503 66 263 0.0 4.0 0.00 0.00 0.00 83 1006.6
20260506080532 67 312 3.0 8.0 0.00 0.00 0.00 82 1006.6
20260506080108 67 280 2.0 8.0 0.00 0.00 0.00 82 1006.6
20260506073103 71 306 3.0 12.0 0.00 0.00 0.00 83 1006.1
20260506071607 72 198 1.0 4.0 0.00 0.00 0.00 85 1005.8
20260506071132 73 228 1.0 4.0 0.00 0.00 0.00 86 1005.8
20260506070232 73 228 1.0 3.0 0.00 0.00 0.00 87 1005.5
20260506061732 75 154 0.0 2.0 0.00 0.00 0.00 88 1005.3
20260506061604 74 155 0.0 2.0 0.00 0.00 0.00 88 1005.2